Skip Page Navigation
NASA JPL Caltech
NASA Logo - Jet Propulsion Laboratory + View the NASA Portal
+ Center for Near-Earth Object Studies
JPL Home Earth Solar System Stars & Galaxies Technology
JPL Solar System Dynamics
BODIES ORBITS EPHEMERIDES TOOLS PHYSICAL DATA DISCOVERY FAQ SITE MAP
IMPORTANT: The SSD Announcement email list is now available. Major changes are coming in the near future, including possible hostname and/or URL changes. To be notified of such changes, subscribe to this email list.

Please visit this page for more details.


JPL Small-Body Database Browser
Search: [ help ]  
35007 (1979 OD11)
Classification: Main-belt Asteroid          SPK-ID: 2035007
Ephemeris | Orbit Diagram | Orbital Elements | Mission Design | Physical Parameters | Discovery Circumstances ]

[ show orbit diagram ]
Orbital Elements at Epoch 2458600.5 (2019-Apr-27.0) TDB
Reference: JPL 22 (heliocentric ecliptic J2000)
 Element Value Uncertainty (1-sigma)   Units 
e .1343688978383704 4.102e-08  
a 2.611399227410633 1.5516e-08 au
q 2.260508391407495 1.0829e-07 au
i 15.97975020144713 4.9132e-06 deg
node 138.4299094067455 1.5226e-05 deg
peri 224.7240523418099 2.2473e-05 deg
M 101.0317821665554 1.7351e-05 deg
tp 2458167.922579167506
(2018-Feb-18.42257917)
7.3418e-05 TDB
period 1541.375081783407
4.22
1.3738e-05
3.761e-08
d
yr
n .2335576877131499 2.0816e-09 deg/d
Q 2.962290063413772 1.7601e-08 au
  Orbit Determination Parameters
   # obs. used (total)      969  
   data-arc span      14482 days (39.65 yr)  
   first obs. used      1979-07-24  
   last obs. used      2019-03-18  
   planetary ephem.      DE431  
   SB-pert. ephem.      SB431-N16  
   condition code      0  
   norm. resid. RMS      .5523  
   source      ORB  
   producer      Otto Matic  
   solution date      2019-Jul-13 01:44:52  

Additional Information
 Earth MOID = 1.27911 au 
 Jupiter MOID = 2.49698 au 
 T_jup = 3.342 
[ show covariance matrix ]

Ephemeris | Orbit Diagram | Orbital Elements | Mission Design | Physical Parameters | Discovery Circumstances ]

Physical Parameter Table
Parameter Symbol Value Units Sigma Reference Notes
absolute magnitude H 14.8   n/a MPO337547  

35007 (1979 OD11)          Discovered 1979-Jul-24 by Bus, S. J. at Siding Spring
Reference: 20020227/Numbers.arcLast Updated: 2004-04-19

Alternate Designations
 1979 OD11 = 1994 CA6 
Ephemeris | Orbit Diagram | Orbital Elements | Mission Design | Physical Parameters | Discovery Circumstances ]
ABOUT SSD CREDITS/AWARDS PRIVACY/COPYRIGHT GLOSSARY LINKS
FirstGov 2019-Oct-20 15:07 UT
(server date/time)  
NASA Home Page
Site Manager:   Ryan S. Park
Webmaster  Alan B. Chamberlin